Miscellaneous Local Product
Issued by NWS North Platte, NE

Home | Current Version | Previous Version | Graphics & Text | Print | Product List | Glossary On
Versions: 1 2 3 4 5 6 7 8 9 10 11 12 13 14 15 16 17 18 19 20 21 22 23 24 25 26 27 28 29 30 31 32 33 34 35 36 37 38 39 40 41 42 43 44 45 46 47 48 49 50
000
AXUS43 KLBF 280410
MISLBF


WESTERN AND NORTH CENTRAL NEBRASKA HOURLY WEATHER ROUNDUP
NATIONAL WEATHER SERVICE NORTH PLATTE NE
1100 PM CDT WED JUL 27 2016

NOTE: "FAIR" INDICATES FEW OR NO CLOUDS BELOW 12,000 FEET WITH NO
SIGNIFICANT WEATHER AND/OR OBSTRUCTIONS TO VISIBILITY.

NOTE: STATIONS NOT REPORTING VARIABLES SUCH AS SKY/WEATHER OR
PRESSURE ARE PROVIDED BY RAWS AND APRS NETWORKS AND ARE NOT UNDER
NATIONAL WEATHER SERVICE QUALITY CONTROL.

...OBSERVATIONS IN AND NEAR THE EASTERN PANHANDLE OF NEBRASKA...

CITY           SKY/WX    TMP DP  RH WIND       PRES   REMARKS
PINE RIDGE     LGT RAIN  67  65  93 CALM      30.18R
CHADRON        CLOUDY    71  61  70 E9        30.15S
ALLIANCE       MOCLDY    71  61  70 E12       30.20R
SIDNEY         MOCLDY    67  61  81 E7        30.20R
CRESCENT LAKE    N/A     69  57  65 E10G18      N/A
$$

...OBSERVATIONS IN NORTHERN NEBRASKA AND FAR SOUTHERN SOUTH DAKOTA...

CITY           SKY/WX    TMP DP  RH WIND       PRES   REMARKS
WINNER         FAIR      66  62  87 NW8       30.11R
VALENTINE      PTCLDY    61  57  87 MISG      30.13R
THEDFORD       CLEAR     65  60  83 E5        30.17S
AINSWORTH      PTCLDY    62  59  93 SE3       30.13F
O`NEILL        CLOUDY    68  59  72 NW10      30.09F
ORD            MOCLDY    67  61  81 N6        30.10R
BROKEN BOW     CLEAR     65  62  90 N9        30.13R
VALENTINE NWR    N/A     65  58  79 E6G13       N/A
BUTTE            N/A     65  61  86 CALM        N/A
HALSEY           N/A     66  58  77 NE3         N/A
EWING            N/A     66  62  87 NW6         N/A
$$

...OBSERVATIONS IN SOUTHWEST NEBRASKA AND FAR NORTHEAST COLORADO...

CITY           SKY/WX    TMP DP  RH WIND       PRES   REMARKS
WRAY           FAIR      79  57  47 SE3G18    30.09F
HOLYOKE        FAIR      73  61  64 E12G21    30.12F
IMPERIAL       CLOUDY    75  63  66 E10       30.12S
OGALLALA       MOCLDY    73  56  54 E12       30.14R
NORTH PLATTE   CLEAR     67  62  84 NE8       30.13R
MCCOOK         MOCLDY    75  68  78 E8        30.08R
LEXINGTON      CLEAR     70  64  81 N6        30.11R
STAPLETON        N/A     65  62  89 CALM        N/A
GOTHENBURG       N/A     73  62  68 NE3         N/A
CALLAWAY         N/A     66  64  94 NE3         N/A
$$

...OBSERVATIONS IN CENTRAL LINCOLN COUNTY AREA...

CITY           SKY/WX    TMP DP  RH WIND       PRES   REMARKS
N.P. AIRPORT   CLEAR     67  62  84 NE8       30.13R
N.P. DOWNTOWN    N/A     70  62  77 NE7         N/A
N.P. SOUTHEAST   N/A     71  61  71 CALM        N/A
N.P. HILLCREST   N/A     68  62  79 E16         N/A
$$

...SOME OBSERVATIONS FROM AROUND THE REGION...

CITY           SKY/WX    TMP DP  RH WIND       PRES   REMARKS
DENVER         MOCLDY    72  57  59 E15       30.20R
LARAMIE        CLEAR     65  49  56 SE10      30.32R
CHEYENNE       CLEAR     65  58  78 E6        30.28R
SCOTTSBLUFF    CLOUDY    74  58  57 NE13      30.19R
RAPID CITY     CLEAR     65  59  81 E8        30.16R
BISMARCK       LGT RAIN  67  63  87 E5        30.13R
PIERRE         CLOUDY    67  62  84 CALM      30.09R
SIOUX FALLS    CLOUDY    70  63  78 N7        30.04R
OMAHA          PTCLDY    76  70  82 W3        29.98R
GRAND ISLAND   MOCLDY    72  67  84 N5        30.07R
KANSAS CITY    PTCLDY    80  71  74 CALM      29.97R
WICHITA        PTCLDY    83  71  67 E6        29.98R
OKLAHOMA CITY  PTCLDY    75  73  93 CALM      29.98R
DALLAS         CLOUDY    85  71  63 S8        29.94R HX  90
AMARILLO       LGT RAIN  65  60  84 SW6       30.19F
DODGE CITY     CLEAR     74  71  91 E3        30.06R
HAYS           CLEAR     77  64  65 NE8       30.03S
GOODLAND       MOCLDY    75  65  70 SE9       30.11R THUNDER
$$




USA.gov is the U.S. government's official web portal to all federal, state and local government web resources and services.